San Juan, PR

9:57 AM AST on November 24, 2017 (GMT -0400)
Luis Munoz Marin International

Weather History for TJSJ - November, 2013

Change the Weather History Date:

Wednesday, November 20, 2013

  Actual Average Record
Temperature  
Mean Temperature 80 °F 80 °F  
Max Temperature 86 °F 85 °F 93 °F (1994)
Min Temperature 74 °F 75 °F 66 °F (1969)
Degree Days  
Heating Degree Days 0 0  
Month to date heating degree days 0 0  
Since 1 July heating degree days 0 0  
Cooling Degree Days 15 15  
Month to date cooling degree days 331 318  
Year to date cooling degree days 5425 5277  
Growing Degree Days 30 (Base 50)    
Moisture  
Dew Point 69 °F    
Average Humidity 70    
Maximum Humidity 84    
Minimum Humidity 55    
Precipitation  
Precipitation 0.04 in 0.21 in 3.58 in (2016)
Month to date precipitation 2.79 4.43  
Year to date precipitation 71.27 49.41  
Sea Level Pressure  
Sea Level Pressure 29.96 in    
Wind  
Wind Speed 7 mph (East)    
Max Wind Speed 17 mph    
Max Gust Speed 22 mph    
Visibility 10 miles    
Events Rain    
T = Trace of Precipitation, MM = Missing Value Source: NWS Daily Summary

Daily Weather History Graph

Daily Weather History Graph

Search for Another Location

Airport or City:

Trip Planner

Search our weather history database for the weather conditions in past years. The results will help you decide how hot, cold, wet, or windy it might be!

Date:

Astronomy

Nov. 20, 2013 Rise Set
Actual Time 6:33 AM AST 5:45 PM AST
Civil Twilight 6:10 AM AST 6:08 PM AST
Nautical Twilight 5:43 AM AST 6:35 PM AST
Astronomical Twilight 5:17 AM AST 7:01 PM AST
Moon 8:25 PM AST (11/20) 8:54 AM AST (11/20)
Length of Visible Light 11h 58m
Length of Day
11h 12m
Waning Gibbous, 91% of the Moon is Illuminated
Nov 20
Waning Gibbous
Nov 25
Last Quarter
Dec 2
New
Dec 9
First Quarter
Dec 17
Full

Hourly Weather History & Observations

Time (AST) Temp. Heat Index Dew Point Humidity Pressure Visibility Wind Dir Wind Speed Gust Speed Precip Events Conditions
12:56 AM 77.0 °F - 66.9 °F 71% 29.92 in 10.0 mi Calm Calm - N/A   Scattered Clouds
1:56 AM 75.9 °F - 66.9 °F 74% 29.91 in 10.0 mi Calm Calm - N/A   Scattered Clouds
2:56 AM 75.0 °F - 66.9 °F 76% 29.90 in 10.0 mi Calm Calm - N/A   Scattered Clouds
3:56 AM 73.9 °F - 68.0 °F 82% 29.91 in 10.0 mi Calm Calm - N/A   Scattered Clouds
4:56 AM 75.0 °F - 69.1 °F 82% 29.92 in 10.0 mi Calm Calm - N/A   Scattered Clouds
5:56 AM 75.0 °F - 68.0 °F 79% 29.94 in 10.0 mi Calm Calm - N/A   Scattered Clouds
6:56 AM 73.9 °F - 68.0 °F 82% 29.96 in 10.0 mi Calm Calm - N/A   Partly Cloudy
7:56 AM 77.0 °F - 68.0 °F 74% 29.98 in 10.0 mi Calm Calm - N/A   Partly Cloudy
8:56 AM 81.0 °F 83.8 °F 68.0 °F 65% 30.00 in 10.0 mi East 5.8 mph - N/A   Partly Cloudy
9:56 AM 82.9 °F 85.4 °F 66.9 °F 58% 30.01 in 10.0 mi ENE 11.5 mph - N/A   Partly Cloudy
10:56 AM 84.9 °F 87.6 °F 66.9 °F 55% 30.01 in 10.0 mi NE 11.5 mph - N/A   Scattered Clouds
11:56 AM 86.0 °F 90.1 °F 69.1 °F 57% 29.99 in 10.0 mi ENE 13.8 mph - N/A   Partly Cloudy
12:56 PM 84.0 °F 87.8 °F 69.1 °F 61% 29.97 in 10.0 mi ENE 11.5 mph - N/A   Scattered Clouds
1:56 PM 84.9 °F 88.8 °F 69.1 °F 59% 29.94 in 10.0 mi ENE 15.0 mph - N/A   Scattered Clouds
2:56 PM 84.0 °F 87.8 °F 69.1 °F 61% 29.94 in 10.0 mi ENE 12.7 mph - N/A   Scattered Clouds
3:56 PM 82.9 °F 85.8 °F 68.0 °F 60% 29.94 in 10.0 mi ENE 15.0 mph - N/A   Scattered Clouds
4:56 PM 82.0 °F 84.9 °F 68.0 °F 62% 29.95 in 10.0 mi East 13.8 mph - N/A   Scattered Clouds
5:56 PM 80.1 °F 82.9 °F 69.1 °F 69% 29.96 in 10.0 mi East 8.1 mph - N/A   Scattered Clouds
6:56 PM 79.0 °F - 69.1 °F 72% 29.98 in 10.0 mi East 8.1 mph - N/A   Partly Cloudy
7:56 PM 79.0 °F - 69.1 °F 72% 30.00 in 10.0 mi East 5.8 mph - N/A   Partly Cloudy
8:56 PM 80.1 °F 83.2 °F 70.0 °F 71% 30.01 in 10.0 mi East 6.9 mph - N/A   Scattered Clouds
9:56 PM 79.0 °F - 70.0 °F 74% 30.01 in 10.0 mi East 3.5 mph - N/A   Scattered Clouds
10:56 PM 77.0 °F - 72.0 °F 84% 30.01 in 7.0 mi ENE 9.2 mph - 0.01 in Rain Light Rain
11:56 PM 78.1 °F - 72.0 °F 81% 30.01 in 10.0 mi ESE 3.5 mph - 0.03 in Rain Light Rain